Regional Weather Roundup
Issued by NWS

Home | Current Version | Previous Version | Graphics & Text | Print | Product List | Glossary On
Versions: 1 2 3 4 5 6 7 8 9 10 11 12 13 14 15 16 17 18 19 20 21 22 23 24 25 26 27 28 29 30 31 32 33 34 35 36 37 38 39 40 41 42 43 44 45 46 47 48 49 50
446
ASUS43 KDMX 111003
RWRIA

WEATHER ROUNDUP FOR IOWA
NATIONAL WEATHER SERVICE DES MOINES IA
400 AM CST THU FEB 11 2016

NOTE: "FAIR" INDICATES FEW OR NO CLOUDS BELOW 12,000 FEET WITH NO
SIGNIFICANT WEATHER AND/OR OBSTRUCTIONS TO VISIBILITY.

* - THESE STATIONS ARE NOT NWS STATIONS...THUS NOT UNDER NWS
QUALITY CONTROL.  THEY ALSO DO NOT REPORT WEATHER SUCH
AS PRECIPITATION OR FOG.

IAZ001>003-012>014-020>022-031>034-043>046-111100-
   NORTHWEST IOWA

CITY           SKY/WX    TMP DP  RH WIND       PRES   REMARKS
CARROLL *      CLOUDY    10   5  79 E6        30.26S WCI   1
CHEROKEE *     CLOUDY    12   5  73 NE5       30.26R WCI   4
DENISON *      CLOUDY    12   7  79 E10       30.22F WCI  -1
LE MARS *      CLOUDY    14   7  73 E5        30.28R WCI   6
ORANGE CITY *  CLOUDY    12   9  85 E3        30.24S
SHELDON *      CLOUDY    12   7  79 NE7       30.24R WCI   2
SIOUX CITY     CLOUDY    17   8  67 E5        30.27R WCI  10
SPENCER        CLOUDY    12   3  67 NE5       30.26R WCI   4
STORM LAKE *   CLOUDY    12   5  73 NE9       30.24R WCI   0
$$

IAZ055>058-069>071-079>083-090>094-111100-
   SOUTHWEST IOWA

CITY           SKY/WX    TMP DP  RH WIND       PRES   REMARKS
ATLANTIC *     CLOUDY    12   5  73 NE12      30.24F WCI  -2
AUDUBON *      CLOUDY     9   3  78 CALM      30.24F
CLARINDA *     CLOUDY    19  16  86 NE8G14    30.24F WCI   9
COUNCIL BLFS * CLOUDY    12   9  85 NE9       30.23S WCI   0
CRESTON *      CLOUDY    12   9  85 NE12      30.24S WCI  -2
HARLAN  *      CLOUDY    10   5  79 NE7       30.27F WCI   0
LAMONI         CLOUDY    18  13  80 NE13      30.22R WCI   5
RED OAK *      CLEAR     16  14  93 NE9       30.25R WCI   4
SHENANDOAH *   CLOUDY    21  19  93 NE13      30.25S WCI   9
$$

IAZ047>049-059>061-072>074-084-111100-
   CENTRAL IOWA

CITY           SKY/WX    TMP DP  RH WIND       PRES   REMARKS
AMES           CLOUDY     5  -3  69 N3        30.28R
ANKENY *       PTCLDY     7   0  72 N5        30.28S WCI  -2
BOONE *        CLOUDY     3  -4  72 N7        30.25S WCI  -9
CHARITON *     CLOUDY     9   3  78 N7        30.25R WCI  -3
DES MOINES     CLOUDY    10  -1  61 NE9       30.27R WCI  -3
GRINNELL*      CLOUDY     7   0  72 N3        30.25S
KNOXVILLE *    MOCLDY    10   0  61 N6        30.26R WCI   1
MARSHALLTOWN   CLOUDY     2  -3  80 N3        30.26R
NEWTON *       CLOUDY     5  -2  72 N8        30.26S WCI  -8
PELLA *        CLOUDY     8   1  73 N3        30.29R
$$

IAZ004>006-015-016-023>025-035-036-111100-
   NORTH CENTRAL IOWA

CITY           SKY/WX    TMP DP  RH WIND       PRES   REMARKS
ALGONA *       PTCLDY     0  -4  85 W5        30.26R WCI -10
CLARION *      CLOUDY    -4  -9  77 NE7       30.27S WCI -18
ESTHERVILLE    PTCLDY    -1  -3  91 NW6       30.26R WCI -13
FORT DODGE *   CLOUDY     7  -2  66 N3        30.27R
MASON CITY     CLOUDY    -2  -7  79 N7        30.26S WCI -15
FOREST CITY *    N/A      0  -4  85 CALM      30.26R
WEBSTER CITY * CLEAR      3  -4  72 N7        30.25R WCI  -9
IOWA FALLS *     N/A      3  -2  78 N5        30.26S WCI  -6
$$

IAZ007>011-017>019-026>030-037>042-050>054-066-111100-
   NORTHEAST IOWA

CITY           SKY/WX    TMP DP  RH WIND       PRES   REMARKS
CEDAR RAPIDS   CLOUDY     5   0  79 N6        30.25S WCI  -6
CHARLES CITY * CLOUDY    -2  -8  78 NW6       30.27S WCI -14
CLINTON *      CLEAR      7   1  76 N6        30.27R WCI  -3
DECORAH *      CLOUDY     3  -4  72 N5        30.24R WCI  -6
DUBUQUE        CLEAR      6  -2  69 N8        30.23R WCI  -7
MONTICELLO *   CLEAR      9   0  66 N6        30.26S HAZE    WCI  -1
OELWEIN *      CLOUDY     1  -4  78 NW6       30.27R WCI -10
WATERLOO       CLOUDY     0  -6  76 N7        30.28S WCI -13
$$

IAZ064-065-067-068-078-111100-
   EAST CENTRAL IOWA

CITY           SKY/WX    TMP DP  RH WIND       PRES   REMARKS
DAVENPORT      CLEAR      8   2  76 N8        30.26R WCI  -4
IOWA CITY      CLOUDY    10   1  67 N7        30.29R WCI  -1
MT. PLEASANT * CLOUDY    13   6  73 N7        30.26S WCI   3
MUSCATINE *    CLOUDY    10   3  72 N6        30.29R WCI   1
QUAD CITIES    CLOUDY    11   2  67 CALM      30.26R
$$

IAZ062-063-075>077-085>089-095>099-111100-
   SOUTHEAST IOWA

CITY           SKY/WX    TMP DP  RH WIND       PRES   REMARKS
BURLINGTON     CLOUDY    10   4  76 N8        30.26R WCI  -2
FAIRFIELD *    CLOUDY    10   1  67 N8        30.26R WCI  -1
FORT MADISON * CLOUDY    12   7  79 N7        30.26R WCI   2
KEOKUK *       CLOUDY    18   7  62 NE7       30.25R WCI   8
OSKALOOSA *      N/A      9   3  78 N10       30.26S WCI  -6
OTTUMWA        CLOUDY    10   2  69 NE7       30.25S WCI  -1
WASHINGTON *   CLOUDY     9   1  72 N5        30.28S WCI   0
$$

ABBREVIATIONS USED IN REMARKS
   TC - TEMPERATURES IN CELSIUS
  WCI - WIND CHILL INDEX
   HX - HEAT INDEX
  VSB - VISIBILITY
$$





USA.gov is the U.S. government's official web portal to all federal, state and local government web resources and services.